Location: Sungai Bunut
(2.6333°N, 113.7333°E)
Time: 01:07:49
(UTC+00:00)

Vanguard 1 - Pass Details

Date: 12 December 2023
Orbit: 653 x 3825 km, 34.3° (Epoch: 03 March)

Event Time Altitude Azimuth Distance (km) Brightness Sun altitude
Rises 10:18:05 0° 311° (NW) 5,463 14.3 -0.9°
Reaches altitude 10° 10:23:21 10° 330° (NNW) 5,041 13.8 -2.1°
Maximum altitude 10:32:55 18° 8° (N) 5,252 13.5 -4.3°
Drops below altitude 10° 10:45:20 10° 45° (NE) 6,668 13.7 -7.2°
Enters shadow 10:48:58 - 53° (NE) 7,169 13.8 -8.0°
